| time (UTC) | temp F | wind direction | speed MPH | gust MPH | rain 1hr in | rain 24hr in | rain mn in | humidity % | barometer mb |
| 20260906233027 | 76 | 149 | 3.0 | 8.0 | 0.00 | 0.00 | 0.00 | 23 | 1017.6 |
| 20260906231531 | 77 | 198 | 6.0 | 13.0 | 0.00 | 0.00 | 0.00 | 21 | 1017.4 |
| 20260906230039 | 78 | 79 | 6.0 | 16.0 | 0.00 | 0.00 | 0.00 | 21 | 1017.7 |
| 20260906224534 | 78 | 173 | 7.0 | 13.0 | 0.00 | 0.00 | 0.00 | 21 | 1017.4 |
| 20260906223016 | 78 | 149 | 7.0 | 17.0 | 0.00 | 0.00 | 0.00 | 22 | 1017.3 |
| 20260906221518 | 78 | 166 | 5.0 | 14.0 | 0.00 | 0.00 | 0.00 | 21 | 1017.5 |
| 20260906220024 | 79 | 145 | 6.0 | 15.0 | 0.00 | 0.00 | 0.00 | 20 | 1017.1 |
| 20260906214531 | 78 | 217 | 7.0 | 11.0 | 0.00 | 0.00 | 0.00 | 21 | 1017.4 |
| 20260906213035 | 79 | 200 | 3.0 | 13.0 | 0.00 | 0.00 | 0.00 | 19 | 1017.4 |
| 20260906211517 | 79 | 152 | 6.0 | 18.0 | 0.00 | 0.00 | 0.00 | 18 | 1017.8 |
| 20260906210032 | 80 | 224 | 5.0 | 15.0 | 0.00 | 0.00 | 0.00 | 19 | 1017.9 |
| 20260906204528 | 79 | 204 | 6.0 | 14.0 | 0.00 | 0.00 | 0.00 | 18 | 1017.9 |
| 20260906203031 | 79 | 215 | 6.0 | 13.0 | 0.00 | 0.00 | 0.00 | 19 | 1017.8 |
| 20260906201533 | 79 | 146 | 7.0 | 14.0 | 0.00 | 0.00 | 0.00 | 18 | 1018.0 |
| 20260906200019 | 79 | 145 | 5.0 | 11.0 | 0.00 | 0.00 | 0.00 | 19 | 1018.1 |
| 20260906194537 | 79 | 217 | 4.0 | 14.0 | 0.00 | 0.00 | 0.00 | 18 | 1018.5 |
| 20260906193036 | 78 | 167 | 8.0 | 15.0 | 0.00 | 0.00 | 0.00 | 18 | 1018.8 |
| 20260906191533 | 77 | 177 | 6.0 | 13.0 | 0.00 | 0.00 | 0.00 | 20 | 1019.1 |
| 20260906190033 | 77 | 155 | 7.0 | 12.0 | 0.00 | 0.00 | 0.00 | 19 | 1019.3 |
| 20260906184523 | 77 | 200 | 6.0 | 13.0 | 0.00 | 0.00 | 0.00 | 21 | 1019.7 |
| 20260906183028 | 76 | 194 | 4.0 | 10.0 | 0.00 | 0.00 | 0.00 | 25 | 1019.8 |
| 20260906181538 | 73 | 175 | 3.0 | 4.0 | 0.00 | 0.00 | 0.00 | 28 | 1020.1 |
| 20260906180043 | 69 | 251 | 2.0 | 5.0 | 0.00 | 0.00 | 0.00 | 37 | 1020.4 |
| 20260906174537 | 67 | 274 | 2.0 | 5.0 | 0.00 | 0.00 | 0.00 | 42 | 1020.9 |
| 20260906173021 | 65 | 280 | 1.0 | 5.0 | 0.00 | 0.00 | 0.00 | 42 | 1021.1 |
| 20260906171532 | 64 | 202 | 1.0 | 3.0 | 0.00 | 0.00 | 0.00 | 44 | 1021.3 |
| 20260906170032 | 62 | 253 | 1.0 | 3.0 | 0.00 | 0.00 | 0.00 | 45 | 1021.5 |
| 20260906164532 | 60 | 124 | 1.0 | 3.0 | 0.00 | 0.00 | 0.00 | 46 | 1021.7 |
| 20260906163041 | 58 | 303 | 1.0 | 4.0 | 0.00 | 0.00 | 0.00 | 49 | 1021.9 |
| 20260906161532 | 57 | 69 | 1.0 | 2.0 | 0.00 | 0.00 | 0.00 | 50 | 1022.1 |
| 20260906160035 | 55 | 273 | 0.0 | 2.0 | 0.00 | 0.00 | 0.00 | 54 | 1022.3 |
| 20260906154510 | 54 | 285 | 0.0 | 2.0 | 0.00 | 0.00 | 0.00 | 55 | 1022.4 |
| 20260906153033 | 53 | 112 | 0.0 | 2.0 | 0.00 | 0.00 | 0.00 | 56 | 1022.7 |
| 20260906151513 | 51 | 230 | 0.0 | 0.0 | 0.00 | 0.00 | 0.00 | 61 | 1022.9 |
| 20260906150016 | 46 | 85 | 0.0 | 0.0 | 0.00 | 0.00 | 0.00 | 71 | 1022.9 |
| 20260906144513 | 42 | 238 | 0.0 | 0.0 | 0.00 | 0.00 | 0.00 | 76 | 1023.0 |
| 20260906143013 | 42 | 239 | 0.0 | 0.0 | 0.00 | 0.00 | 0.00 | 78 | 1023.0 |
| 20260906141522 | 41 | 239 | 0.0 | 0.0 | 0.00 | 0.00 | 0.00 | 80 | 1023.0 |
| 20260906140017 | 41 | 171 | 0.0 | 1.0 | 0.00 | 0.00 | 0.00 | 80 | 1023.0 |
| 20260906134517 | 41 | 96 | 0.0 | 2.0 | 0.00 | 0.00 | 0.00 | 79 | 1022.9 |
| 20260906133010 | 40 | 115 | 0.0 | 1.0 | 0.00 | 0.00 | 0.00 | 80 | 1022.9 |
| 20260906131530 | 41 | 134 | 0.0 | 0.0 | 0.00 | 0.00 | 0.00 | 77 | 1022.7 |
| 20260906130037 | 41 | 146 | 0.0 | 1.0 | 0.00 | 0.00 | 0.00 | 79 | 1022.7 |
| 20260906124516 | 41 | 253 | 0.0 | 0.0 | 0.00 | 0.00 | 0.00 | 77 | 1022.7 |
| 20260906123029 | 43 | 243 | 0.0 | 0.0 | 0.00 | 0.00 | 0.00 | 75 | 1022.5 |
| 20260906121525 | 43 | 63 | 0.0 | 0.0 | 0.00 | 0.00 | 0.00 | 69 | 1022.3 |
| 20260906120019 | 44 | 63 | 0.0 | 0.0 | 0.00 | 0.00 | 0.00 | 67 | 1022.3 |
| 20260906114521 | 44 | 63 | 0.0 | 0.0 | 0.00 | 0.00 | 0.00 | 71 | 1022.3 |
| 20260906113023 | 46 | 83 | 1.0 | 2.0 | 0.00 | 0.00 | 0.00 | 63 | 1022.1 |
| 20260906111523 | 46 | 31 | 0.0 | 3.0 | 0.00 | 0.00 | 0.00 | 62 | 1022.1 |
| 20260906110014 | 45 | 56 | 0.0 | 0.0 | 0.00 | 0.00 | 0.00 | 69 | 1022.1 |
| 20260906104528 | 45 | 321 | 0.0 | 1.0 | 0.00 | 0.00 | 0.00 | 68 | 1022.0 |
| 20260906103029 | 45 | 32 | 2.0 | 3.0 | 0.00 | 0.00 | 0.00 | 69 | 1021.9 |
| 20260906101528 | 46 | 45 | 0.0 | 1.0 | 0.00 | 0.00 | 0.00 | 68 | 1021.7 |
| 20260906100023 | 48 | 255 | 1.0 | 3.0 | 0.00 | 0.00 | 0.00 | 61 | 1021.7 |
| 20260906094516 | 48 | 114 | 0.0 | 1.0 | 0.00 | 0.00 | 0.00 | 58 | 1021.7 |
| 20260906093037 | 49 | 134 | 0.0 | 1.0 | 0.00 | 0.00 | 0.00 | 61 | 1021.6 |
| 20260906091525 | 49 | 126 | 0.0 | 1.0 | 0.00 | 0.00 | 0.00 | 57 | 1021.5 |
| 20260906090028 | 49 | 131 | 0.0 | 0.0 | 0.00 | 0.00 | 0.00 | 61 | 1021.6 |
| 20260906084528 | 50 | 131 | 0.0 | 1.0 | 0.00 | 0.00 | 0.00 | 59 | 1021.6 |
| 20260906083022 | 50 | 72 | 0.0 | 1.0 | 0.00 | 0.00 | 0.00 | 57 | 1021.7 |
| 20260906081534 | 50 | 37 | 0.0 | 1.0 | 0.00 | 0.00 | 0.00 | 59 | 1021.7 |
| 20260906080030 | 51 | 10 | 0.0 | 3.0 | 0.00 | 0.00 | 0.00 | 59 | 1021.6 |
| 20260906074534 | 52 | 155 | 0.0 | 1.0 | 0.00 | 0.00 | 0.00 | 55 | 1021.6 |
| 20260906073029 | 51 | 123 | 0.0 | 1.0 | 0.00 | 0.00 | 0.00 | 52 | 1021.7 |
| 20260906071522 | 52 | 68 | 0.0 | 1.0 | 0.00 | 0.00 | 0.00 | 53 | 1021.6 |
| 20260906070029 | 51 | 68 | 0.0 | 2.0 | 0.00 | 0.00 | 0.00 | 53 | 1021.5 |
| 20260906064535 | 54 | 53 | 0.0 | 1.0 | 0.00 | 0.00 | 0.00 | 44 | 1021.4 |
| 20260906063033 | 54 | 53 | 0.0 | 1.0 | 0.00 | 0.00 | 0.00 | 45 | 1021.4 |
| 20260906061537 | 54 | 20 | 2.0 | 3.0 | 0.00 | 0.00 | 0.00 | 46 | 1021.4 |
| 20260906060036 | 55 | 27 | 0.0 | 0.0 | 0.00 | 0.00 | 0.00 | 43 | 1021.4 |
| 20260906054527 | 55 | 9 | 0.0 | 0.0 | 0.00 | 0.00 | 0.00 | 43 | 1021.4 |
| 20260906053033 | 55 | 19 | 0.0 | 1.0 | 0.00 | 0.00 | 0.00 | 44 | 1021.5 |
| 20260906051528 | 55 | 17 | 0.0 | 0.0 | 0.00 | 0.00 | 0.00 | 44 | 1021.5 |
| 20260906050023 | 56 | 17 | 0.0 | 3.0 | 0.00 | 0.00 | 0.00 | 43 | 1021.5 |
| 20260906044527 | 57 | 15 | 2.0 | 3.0 | 0.00 | 0.00 | 0.00 | 42 | 1021.6 |
| 20260906043004 | 59 | 51 | 0.0 | 2.0 | 0.00 | 0.00 | 0.00 | 34 | 1021.5 |
| 20260906041527 | 58 | 15 | 0.0 | 4.0 | 0.00 | 0.00 | 0.00 | 39 | 1021.5 |
| 20260906040016 | 63 | 165 | 0.0 | 2.0 | 0.00 | 0.00 | 0.00 | 33 | 1021.3 |
| 20260906034527 | 64 | 162 | 0.0 | 1.0 | 0.00 | 0.00 | 0.00 | 29 | 1021.3 |
| 20260906033033 | 68 | 77 | 1.0 | 5.0 | 0.00 | 0.00 | 0.00 | 23 | 1021.1 |
| 20260906031513 | 68 | 34 | 4.0 | 7.0 | 0.00 | 0.00 | 0.00 | 23 | 1021.1 |
| 20260906030012 | 69 | 70 | 4.0 | 7.0 | 0.00 | 0.00 | 0.00 | 23 | 1020.9 |
| 20260906024532 | 68 | 89 | 3.0 | 5.0 | 0.00 | 0.00 | 0.00 | 24 | 1020.8 |
| 20260906023027 | 69 | 53 | 0.0 | 3.0 | 0.00 | 0.00 | 0.00 | 23 | 1020.2 |
| 20260906021530 | 71 | 48 | 2.0 | 5.0 | 0.00 | 0.00 | 0.00 | 21 | 1019.9 |
| 20260906020018 | 73 | 69 | 0.0 | 4.0 | 0.00 | 0.00 | 0.00 | 21 | 1019.7 |
| 20260906014522 | 74 | 58 | 0.0 | 2.0 | 0.00 | 0.00 | 0.00 | 21 | 1019.6 |
| 20260906013018 | 77 | 28 | 1.0 | 4.0 | 0.00 | 0.00 | 0.00 | 19 | 1019.7 |
| 20260906011532 | 79 | 42 | 1.0 | 2.0 | 0.00 | 0.00 | 0.00 | 18 | 1019.7 |
| 20260906010032 | 81 | 212 | 2.0 | 3.0 | 0.00 | 0.00 | 0.00 | 19 | 1019.6 |
| 20260906004510 | 81 | 193 | 2.0 | 5.0 | 0.00 | 0.00 | 0.00 | 18 | 1019.5 |
| 20260906003032 | 81 | 210 | 2.0 | 7.0 | 0.00 | 0.00 | 0.00 | 18 | 1019.4 |
| 20260906001525 | 81 | 165 | 1.0 | 10.0 | 0.00 | 0.00 | 0.00 | 18 | 1019.4 |
| 20260906000035 | 80 | 162 | 6.0 | 10.0 | 0.00 | 0.00 | 0.00 | 17 | 1019.5 |
| 20260905234532 | 81 | 163 | 3.0 | 8.0 | 0.00 | 0.00 | 0.00 | 17 | 1019.4 |